EZY47VR EGGW-LFBD

Flight info

Callsign EZY47VR
Flight time 1h 30m
Altitude 33000
Route RODNI N27 ICTAM Q63 CPT N859 VAPID UN859 SOPIL DCT BALAN DCT LMG
Aircraft A20N/M-SDE2E3FGHIJ1RWXYZ/LB1

Departure

Time 2026-05-04 15:58
Airport London Luton Airport (EGGW)

Arrival

Time 2026-05-04 17:28
Airport Bordeaux–Mérignac Airport (LFBD)
Time Latitude Longitude Altitude Speed Heading
2026-05-04 15:23 51.87958 -0.37899 496 ft 0 kts 128°
2026-05-04 15:43 51.87959 -0.37899 496 ft 0 kts 128°
2026-05-04 15:43 51.87968 -0.37915 496 ft 2 kts 147°
2026-05-04 15:43 51.87978 -0.37924 496 ft 2 kts 156°
2026-05-04 15:44 51.87985 -0.37928 496 ft 2 kts 166°
2026-05-04 15:44 51.88000 -0.37932 496 ft 2 kts 182°
2026-05-04 15:44 51.88015 -0.37928 496 ft 2 kts 198°
2026-05-04 15:44 51.88028 -0.37918 496 ft 2 kts 214°
2026-05-04 15:45 51.88034 -0.37910 496 ft 0 kts 222°
2026-05-04 15:51 51.88034 -0.37911 496 ft 0 kts 222°
2026-05-04 15:51 51.88020 -0.37931 496 ft 5 kts 219°
2026-05-04 15:51 51.87972 -0.37982 496 ft 10 kts 207°
2026-05-04 15:51 51.87885 -0.38006 496 ft 14 kts 171°
2026-05-04 15:52 51.87804 -0.37910 496 ft 15 kts 123°
2026-05-04 15:52 51.87755 -0.37753 496 ft 16 kts 115°
2026-05-04 15:52 51.87707 -0.37586 496 ft 16 kts 116°
2026-05-04 15:52 51.87629 -0.37460 496 ft 16 kts 162°
2026-05-04 15:53 51.87521 -0.37490 496 ft 16 kts 214°
2026-05-04 15:53 51.87508 -0.37514 496 ft 5 kts 252°
2026-05-04 15:53 51.87494 -0.37608 496 ft 11 kts 255°
2026-05-04 15:53 51.87472 -0.37736 496 ft 12 kts 255°
2026-05-04 15:54 51.87448 -0.37876 496 ft 13 kts 254°
2026-05-04 15:54 51.87415 -0.38006 496 ft 5 kts 230°
2026-05-04 15:54 51.87414 -0.38008 496 ft 0 kts 229°
2026-05-04 15:56 51.87408 -0.38019 496 ft 6 kts 225°
2026-05-04 15:56 51.87353 -0.38075 496 ft 6 kts 206°
2026-05-04 15:57 51.87291 -0.38103 496 ft 12 kts 176°
2026-05-04 15:57 51.87260 -0.38014 496 ft 0 kts 76°
2026-05-04 15:57 51.87323 -0.37651 496 ft 71 kts 75°
2026-05-04 15:57 51.87516 -0.36534 497 ft 135 kts 75°
2026-05-04 15:58 51.87796 -0.34888 831 ft 155 kts 73°
2026-05-04 15:58 51.88041 -0.33331 1632 ft 141 kts 72°
2026-05-04 15:58 51.88284 -0.31790 2248 ft 144 kts 75°
2026-05-04 15:58 51.88495 -0.30242 2791 ft 145 kts 74°
2026-05-04 15:59 51.88731 -0.28607 3204 ft 157 kts 71°
2026-05-04 15:59 51.89086 -0.26834 3595 ft 173 kts 76°
2026-05-04 15:59 51.88964 -0.24827 3916 ft 198 kts 115°
2026-05-04 15:59 51.87931 -0.23159 3957 ft 226 kts 154°
2026-05-04 16:00 51.86320 -0.22865 3884 ft 245 kts 195°
2026-05-04 16:00 51.84870 -0.24280 3926 ft 248 kts 231°
2026-05-04 16:00 51.84048 -0.26708 3957 ft 247 kts 251°
2026-05-04 16:00 51.83557 -0.29333 3954 ft 247 kts 257°
2026-05-04 16:01 51.83147 -0.32045 3950 ft 246 kts 258°
2026-05-04 16:01 51.82753 -0.34732 3949 ft 246 kts 258°
2026-05-04 16:01 51.82337 -0.37516 3965 ft 263 kts 257°
2026-05-04 16:01 51.81899 -0.40384 3955 ft 267 kts 258°
2026-05-04 16:02 51.81448 -0.43313 3946 ft 267 kts 257°
2026-05-04 16:02 51.81002 -0.46226 4077 ft 274 kts 258°
2026-05-04 16:02 51.80097 -0.52200 4921 ft 270 kts 258°
2026-05-04 16:03 51.79656 -0.55112 4943 ft 269 kts 257°
2026-05-04 16:03 51.79210 -0.58043 4940 ft 268 kts 257°
2026-05-04 16:03 51.78766 -0.60948 4942 ft 269 kts 257°
2026-05-04 16:03 51.78313 -0.63895 4942 ft 268 kts 257°
2026-05-04 16:04 51.77865 -0.66810 4940 ft 269 kts 256°
2026-05-04 16:04 51.76975 -0.72587 4939 ft 269 kts 257°
2026-05-04 16:04 51.76522 -0.75521 4948 ft 270 kts 257°
2026-05-04 16:05 51.75941 -0.78426 5340 ft 280 kts 243°
2026-05-04 16:05 51.74842 -0.80939 6409 ft 277 kts 227°
2026-05-04 16:05 51.72161 -0.85282 8368 ft 278 kts 225°
2026-05-04 16:06 51.70792 -0.87458 9229 ft 282 kts 225°
2026-05-04 16:06 51.66985 -0.93539 11049 ft 306 kts 225°
2026-05-04 16:07 51.64933 -0.96823 11833 ft 321 kts 225°
2026-05-04 16:07 51.60125 -1.04518 14154 ft 332 kts 225°
2026-05-04 16:08 51.58489 -1.07133 14907 ft 335 kts 224°
2026-05-04 16:08 51.53474 -1.15117 17064 ft 345 kts 224°
2026-05-04 16:09 51.49615 -1.19592 18380 ft 351 kts 195°
2026-05-04 16:09 51.44845 -1.18925 19734 ft 356 kts 156°
2026-05-04 16:10 51.40362 -1.15531 21015 ft 362 kts 156°
2026-05-04 16:11 51.33443 -1.10413 22825 ft 370 kts 157°
2026-05-04 16:11 51.31105 -1.08698 23406 ft 373 kts 158°
2026-05-04 16:12 51.23960 -1.03488 25077 ft 381 kts 158°
2026-05-04 16:12 51.16694 -0.98201 26596 ft 388 kts 158°
2026-05-04 16:13 51.11756 -0.94613 27532 ft 392 kts 158°
2026-05-04 16:13 51.06790 -0.91012 28435 ft 396 kts 158°
2026-05-04 16:14 51.01783 -0.87387 29426 ft 396 kts 158°
2026-05-04 16:14 50.96812 -0.83796 30580 ft 390 kts 158°
2026-05-04 16:15 50.89455 -0.78504 31839 ft 389 kts 158°
2026-05-04 16:16 50.84490 -0.74942 32427 ft 394 kts 157°
2026-05-04 16:16 50.76990 -0.69576 32978 ft 398 kts 157°
2026-05-04 16:17 50.71974 -0.65995 32990 ft 398 kts 157°
2026-05-04 16:18 50.61900 -0.58829 32992 ft 397 kts 157°
2026-05-04 16:19 50.49363 -0.49960 32978 ft 396 kts 157°
2026-05-04 16:20 50.36802 -0.41125 32976 ft 396 kts 157°
2026-05-04 16:22 50.24283 -0.32375 32977 ft 395 kts 158°
2026-05-04 16:23 50.09213 -0.21905 32975 ft 396 kts 158°
2026-05-04 16:25 49.94146 -0.11508 32979 ft 397 kts 158°
2026-05-04 16:26 49.76535 0.00554 32976 ft 395 kts 158°
2026-05-04 16:28 49.63977 0.09095 32976 ft 395 kts 157°
2026-05-04 16:29 49.46461 0.20935 32969 ft 394 kts 158°
2026-05-04 16:31 49.33895 0.29367 32966 ft 395 kts 158°
2026-05-04 16:32 49.18231 0.36662 32946 ft 394 kts 165°
2026-05-04 16:33 49.07718 0.41079 32946 ft 394 kts 165°
2026-05-04 16:34 48.99818 0.44384 32934 ft 393 kts 165°
2026-05-04 16:35 48.84050 0.50950 32935 ft 392 kts 165°
2026-05-04 16:36 48.76152 0.54177 32929 ft 393 kts 166°
2026-05-04 16:37 48.68218 0.57271 32931 ft 393 kts 166°
2026-05-04 16:38 48.57672 0.61393 32938 ft 393 kts 166°
2026-05-04 16:39 48.44459 0.66663 32932 ft 393 kts 166°
2026-05-04 16:40 48.34049 0.70897 32933 ft 392 kts 166°
2026-05-04 16:41 48.20920 0.76165 32931 ft 393 kts 167°
2026-05-04 16:43 48.07723 0.81344 32926 ft 393 kts 167°
2026-05-04 16:43 47.99797 0.84443 32929 ft 393 kts 167°
2026-05-04 16:45 47.83960 0.90618 32923 ft 392 kts 167°
2026-05-04 16:46 47.70760 0.95722 32921 ft 392 kts 167°
2026-05-04 16:47 47.60256 0.99773 32921 ft 391 kts 167°
2026-05-04 16:48 47.49734 1.03814 32915 ft 391 kts 167°
2026-05-04 16:49 47.39099 1.06211 32915 ft 388 kts 179°
2026-05-04 16:50 47.28325 1.06074 32911 ft 387 kts 181°
2026-05-04 16:51 47.20284 1.05896 32913 ft 386 kts 182°
2026-05-04 16:52 47.09562 1.05650 32916 ft 385 kts 181°
2026-05-04 16:53 47.01566 1.05457 32912 ft 385 kts 182°
2026-05-04 16:54 46.90850 1.04986 32911 ft 384 kts 182°
2026-05-04 16:55 46.74872 1.04303 32907 ft 383 kts 182°
2026-05-04 16:56 46.61589 1.03742 32904 ft 383 kts 182°
2026-05-04 16:57 46.53615 1.03408 32905 ft 382 kts 182°
2026-05-04 16:58 46.43018 1.03209 32902 ft 381 kts 181°
2026-05-04 17:00 46.27174 1.03044 32901 ft 380 kts 181°
2026-05-04 17:01 46.13958 1.02898 32897 ft 380 kts 181°
2026-05-04 17:01 46.08682 1.02840 32614 ft 380 kts 181°
2026-05-04 17:02 46.03431 1.02780 32108 ft 376 kts 180°
2026-05-04 17:02 45.98230 1.02725 31596 ft 373 kts 180°
2026-05-04 17:03 45.95672 1.02697 31345 ft 372 kts 180°
2026-05-04 17:03 45.93055 1.02670 31092 ft 374 kts 179°
2026-05-04 17:03 45.87938 1.02545 30573 ft 376 kts 184°
2026-05-04 17:04 45.82869 1.00520 30024 ft 381 kts 203°
2026-05-04 17:04 45.78555 0.96117 29474 ft 391 kts 221°
2026-05-04 17:05 45.75177 0.89968 28553 ft 396 kts 229°
2026-05-04 17:05 45.71978 0.83657 27621 ft 389 kts 230°
2026-05-04 17:06 45.68826 0.77466 26724 ft 381 kts 230°
2026-05-04 17:06 45.67281 0.74444 26275 ft 378 kts 230°
2026-05-04 17:07 45.64212 0.68452 25373 ft 373 kts 230°
2026-05-04 17:07 45.63190 0.66458 25070 ft 371 kts 230°
2026-05-04 17:07 45.61180 0.62542 24459 ft 367 kts 230°
2026-05-04 17:07 45.59666 0.59598 24004 ft 364 kts 230°
2026-05-04 17:08 45.58196 0.56743 23566 ft 361 kts 230°
2026-05-04 17:08 45.55236 0.50999 22668 ft 357 kts 230°
2026-05-04 17:08 45.53768 0.48158 22220 ft 355 kts 230°
2026-05-04 17:09 45.52323 0.45360 21778 ft 353 kts 230°
2026-05-04 17:09 45.50882 0.42575 21340 ft 351 kts 230°
2026-05-04 17:09 45.49437 0.39784 20897 ft 349 kts 230°
2026-05-04 17:10 45.46587 0.34286 20153 ft 340 kts 230°
2026-05-04 17:10 45.42579 0.26560 19637 ft 309 kts 230°
2026-05-04 17:11 45.41328 0.24159 19317 ft 305 kts 230°
2026-05-04 17:11 45.40073 0.21756 18996 ft 300 kts 230°
2026-05-04 17:11 45.37618 0.17056 18379 ft 291 kts 230°
2026-05-04 17:12 45.36435 0.14794 18084 ft 287 kts 230°
2026-05-04 17:12 45.34090 0.10269 17215 ft 289 kts 231°
2026-05-04 17:13 45.30339 0.02966 14790 ft 325 kts 232°
2026-05-04 17:14 45.26257 -0.04976 12778 ft 336 kts 232°
2026-05-04 17:14 45.24876 -0.07661 12303 ft 333 kts 233°
2026-05-04 17:14 45.22203 -0.12845 11602 ft 320 kts 233°
2026-05-04 17:15 45.20906 -0.15356 11292 ft 313 kts 233°
2026-05-04 17:15 45.18418 -0.20164 10587 ft 292 kts 233°
2026-05-04 17:16 45.15985 -0.24428 9920 ft 268 kts 227°
2026-05-04 17:16 45.12143 -0.29984 9177 ft 253 kts 226°
2026-05-04 17:17 45.10939 -0.31718 9087 ft 242 kts 227°
2026-05-04 17:17 45.06505 -0.34256 8451 ft 239 kts 187°
2026-05-04 17:18 45.04844 -0.34465 8159 ft 239 kts 187°
2026-05-04 17:18 45.01553 -0.34897 7595 ft 238 kts 187°
2026-05-04 17:19 44.98306 -0.35345 7046 ft 233 kts 188°
2026-05-04 17:19 44.95119 -0.35795 6510 ft 228 kts 188°
2026-05-04 17:20 44.91974 -0.36242 5978 ft 227 kts 188°
2026-05-04 17:20 44.88873 -0.36681 5448 ft 227 kts 188°
2026-05-04 17:20 44.87364 -0.36895 5193 ft 227 kts 188°
2026-05-04 17:21 44.84255 -0.37608 4659 ft 225 kts 199°
2026-05-04 17:21 44.81287 -0.38845 4144 ft 220 kts 200°
2026-05-04 17:22 44.79828 -0.39462 3891 ft 218 kts 200°
2026-05-04 17:22 44.78392 -0.40093 3668 ft 212 kts 208°
2026-05-04 17:23 44.77238 -0.45015 3286 ft 190 kts 288°
2026-05-04 17:23 44.77634 -0.46770 3164 ft 183 kts 291°
2026-05-04 17:23 44.78342 -0.49835 3057 ft 148 kts 290°
2026-05-04 17:24 44.78629 -0.51177 2843 ft 139 kts 289°
2026-05-04 17:24 44.79429 -0.55071 2319 ft 136 kts 289°
2026-05-04 17:25 44.79683 -0.56311 2128 ft 131 kts 290°
2026-05-04 17:25 44.80186 -0.58740 1784 ft 129 kts 290°
2026-05-04 17:26 44.80689 -0.61151 1445 ft 128 kts 290°
2026-05-04 17:26 44.81501 -0.64721 978 ft 128 kts 289°
2026-05-04 17:27 44.81926 -0.67113 664 ft 127 kts 288°
2026-05-04 17:27 44.82427 -0.69484 289 ft 127 kts 289°
2026-05-04 17:28 44.82806 -0.71240 168 ft 19 kts 286°
2026-05-04 17:29 44.82933 -0.71437 167 ft 11 kts 43°
2026-05-04 17:29 44.82974 -0.71104 167 ft 14 kts 105°
2026-05-04 17:30 44.83029 -0.70847 166 ft 10 kts 43°
2026-05-04 17:31 44.83151 -0.70678 165 ft 13 kts 42°
2026-05-04 17:31 44.83346 -0.70401 164 ft 6 kts 45°
2026-05-04 17:32 44.83360 -0.70326 164 ft 4 kts 105°
2026-05-04 17:33 44.83327 -0.70221 164 ft 3 kts 134°
2026-05-04 17:33 44.83322 -0.70214 165 ft 0 kts 135°
2026-05-04 17:34 44.83316 -0.70206 165 ft 0 kts 135°